Location: Unspecified
(38.6830°S, 0.0000°E)
Time: 15:49:24
(UTC+00:00)

N. Korean satellite - Visible Passes

Search period start: 20 May 2019 00:00
Search period end: 30 May 2019 00:00
Orbit: 457 x 508 km, 97.2° (Epoch: 19 May)

Date Brightness Start Highest point End Pass type
(mag) Time Alt. Az. Time Alt. Az. Time Alt. Az.
20 May 6.3 05:27:25 10° N 05:30:51 71° W 05:33:10 20° SSW visible
20 May 7.8 18:28:26 10° S 18:31:59 44° WSW 18:35:31 10° NNW visible
21 May 7.4 05:02:33 10° NNE 05:05:54 48° ESE 05:07:48 23° S visible
21 May 6.5 18:03:19 10° SSE 18:07:02 82° ENE 18:10:45 10° N visible
22 May 8.8 04:38:16 10° NE 04:41:02 23° ESE 04:42:26 18° SE visible
22 May 8.1 06:12:00 10° NW 06:14:25 18° W 06:16:45 10° SW visible
22 May 7.2 17:38:33 10° SSE 17:42:01 37° E 17:45:29 10° NNE visible
22 May 9.7 19:13:13 10° SW 19:15:05 14° WSW 19:16:59 10° W visible
23 May 9.7 04:15:02 10° E 04:16:16 12° ESE 04:17:04 11° SE visible
23 May 7.0 05:46:03 10° NNW 05:49:17 37° W 05:51:23 19° SW visible
23 May 8.8 18:47:10 10° SSW 18:50:19 26° WSW 18:53:26 10° NW visible
24 May 6.4 05:20:47 10° NNE 05:24:15 88° WNW 05:26:02 28° SSW visible
24 May 7.4 18:21:47 10° S 18:25:26 54° WSW 18:29:05 10° NNW visible
25 May 7.8 04:56:03 10° NE 04:59:19 39° ESE 05:00:40 27° SSE visible
25 May 8.6 06:32:41 10° W 06:32:57 10° W 06:33:14 10° W visible
25 May 6.6 17:56:45 10° SSE 18:00:28 67° E 18:04:11 10° N visible
26 May 9.0 04:31:55 10° ENE 04:34:28 19° ESE 04:35:19 18° SE visible
26 May 7.8 06:05:02 10° NNW 06:07:46 21° W 06:09:37 15° SW visible
26 May 7.5 17:32:04 10° SSE 17:35:25 31° E 17:38:46 10° NNE visible
26 May 9.5 19:06:13 10° SSW 19:08:34 16° WSW 19:10:55 10° WNW visible
27 May 6.7 05:39:18 10° N 05:42:39 46° W 05:44:16 26° SW visible
27 May 8.5 18:40:25 10° S 18:43:45 31° WSW 18:47:05 10° NW visible
28 May 6.6 05:14:10 10° NNE 05:17:38 75° ESE 05:18:56 36° S visible
28 May 7.0 18:15:07 10° S 18:18:51 67° WSW 18:22:34 10° NNW visible
29 May 8.2 04:49:33 10° NE 04:52:43 33° ESE 04:53:36 28° SE visible
29 May 8.5 06:24:42 10° WNW 06:26:16 12° W 06:27:50 10° WSW visible
29 May 6.8 17:50:10 10° SSE 17:53:52 55° E 17:57:33 10° N visible
